Location: Hartman Creek State Park
(44.3257°N, 89.2134°W)
Time: 20:44:35
(UTC-05:00)

Cosmos 2263 Rocket - Visible Passes

Search period start: 21 June 2018 00:00
Search period end: 01 July 2018 00:00
Orbit: 823 x 849 km, 71.0° (Epoch: 21 June)

Date Brightness Start Highest point End Pass type
(mag) Time Alt. Az. Time Alt. Az. Time Alt. Az.
21 Jun 4.4 21:59:11 10° WSW 22:04:04 29° NW 22:08:59 10° N visible
22 Jun 4.4 21:42:17 10° WSW 21:47:17 31° NW 21:52:18 10° N visible
23 Jun 4.3 21:25:25 10° WSW 21:30:30 33° NW 21:35:37 10° N visible
24 Jun 4.6 04:32:54 10° N 04:37:43 28° NE 04:42:29 10° ESE visible
25 Jun 4.7 04:16:14 10° N 04:20:56 26° NE 04:25:35 10° ESE visible
26 Jun 4.8 03:59:34 10° N 04:04:08 25° NE 04:08:40 10° ESE visible
27 Jun 4.8 03:42:54 10° N 03:47:20 23° NE 03:51:43 10° ESE visible
28 Jun 4.9 03:26:15 10° N 03:30:32 22° NE 03:34:46 10° E visible
28 Jun 5.9 21:51:16 10° NW 21:52:05 10° NW 21:52:54 10° NNW visible
29 Jun 4.9 03:09:36 10° N 03:13:43 20° NE 03:17:49 10° E visible
29 Jun 5.8 21:33:43 10° NW 21:35:14 11° NW 21:36:45 10° NNW visible
30 Jun 4.9 02:52:58 10° N 02:56:55 19° NE 03:00:50 10° E visible
30 Jun 2.2 04:35:56 10° NNW 04:41:33 81° WSW 04:47:06 10° SSE visible
